Regional Weather Roundup
Issued by NWS

Home | Current Version | Previous Version | Graphics & Text | Print | Product List | Glossary On
Versions: 1 2 3 4 5 6 7 8 9 10 11 12 13 14 15 16 17 18 19 20 21 22 23 24 25 26 27 28 29 30 31 32 33 34 35 36 37 38 39 40 41 42 43 44 45 46 47 48 49 50
000
ASUS43 KLOT 271612
RWRIL

ILLINOIS REGIONAL WEATHER ROUNDUP
NATIONAL WEATHER SERVICE CHICAGO/ROMEOVILLE IL
1000 AM CST MON FEB 27 2017

NOTE: "FAIR" INDICATES FEW OR NO CLOUDS BELOW 12,000 FEET WITH NO
SIGNIFICANT WEATHER AND/OR OBSTRUCTIONS TO VISIBILITY.

* THESE STATIONS ARE NOT UNDER NWS QUALITY CONTROL. THEY ALSO MAY NOT
  REPORT WEATHER SUCH AS PRECIPITATION OR FOG.

ILZ001-002-007-009-015-016-024-271700-
NORTHWEST ILLINOIS

CITY           SKY/WX    TMP DP  RH WIND       PRES   REMARKS
MOLINE         SUNNY     45  36  70 VRB7      30.12R
STERLING*      SUNNY     41  35  79 S8        30.14R
$$

ILZ003-004-008-010-011-017-018-271700-
NORTH CENTRAL ILLINOIS

CITY           SKY/WX    TMP DP  RH WIND       PRES   REMARKS
ROCKFORD       MOSUNNY   40  34  79 S9        30.15R
FREEPORT*      MOSUNNY   37  33  83 S7        30.14R WCI  32
ROCHELLE*      SUNNY     40  36  84 S8        30.14S
DE KALB*       SUNNY     40  35  81 S7        30.14F
PERU*          SUNNY     42  33  72 S9        30.15S
$$

ILZ005-006-012>014-019>023-271700-
NORTHEAST ILLINOIS

CITY           SKY/WX    TMP DP  RH WIND       PRES   REMARKS
CHICAGO-OHARE  MOSUNNY   43  31  62 S8        30.15S
CHICAGO-MIDWAY SUNNY     42  31  64 S5        30.17S
AURORA         SUNNY     42  33  70 SE8       30.15F
LANSING*       SUNNY     42  36  78 S7        30.19S
JOLIET*        SUNNY     44  36  74 S8        30.18R
WAUKEGAN       CLOUDY    39  29  67 SE8       30.15S WCI  33
DUPAGE AIRPORT SUNNY     43  32  65 S8        30.15S
KANKAKEE*      SUNNY     46  34  63 S7        30.18S
WHEELING       SUNNY     41  29  62 S7        30.17S
MORRIS*        SUNNY     42  34  71 S8        30.16S
ROMEOVILLE*    SUNNY     42  36  81 SE6       30.17S
NORTHERLY ISL    N/A     41  33  73 SE9         N/A
$$

LMZ740>746-271700-
SOUTHERN LAKE MICHIGAN

STATION/POSITION SKY/WX   TEMP    WIND        PRES    VSBY  WAVE
                          AIR SEA DIR/SP/G                  HT/PER
                          (F)     (DEG/KT/KT) (MB)    (MI)  (FT/S)
HARRISON CRIB              38     140/ 10/ 11   N/A
BURNHAM HARBOR             41     120/  8       N/A
CALUMET HARBOR             41     150/  6/  9 1021.5R
BURNS HARBOR               40     200/  7/ 10 1023.0R
MICHIGAN CITY              40     190/  4/  4   N/A
$$

ILZ025>027-034>036-040-047-049-050-058-095>099-271700-
WEST-CENTRAL ILLINOIS

CITY           SKY/WX    TMP DP  RH WIND       PRES   REMARKS
QUINCY         SUNNY     47  35  63 S10       30.11R
GALESBURG*     SUNNY     43  37  78 S8        30.13
MACOMB*        SUNNY     44  36  75 SE7       30.14S
JACKSONVILLE*  SUNNY     49  38  64 SE9       30.13R
PITTSFIELD*    SUNNY     48  37  66 S7        30.13S
$$

ILZ028>032-037-038-041>044-048-051>054-059>061-271700-
CENTRAL ILLINOIS

CITY           SKY/WX    TMP DP  RH WIND       PRES   REMARKS
PONTIAC        SUNNY     47  37  68 S8        30.16F
BLOOMINGTON    SUNNY     48  35  60 S15       30.15S
DECATUR        MOSUNNY   50  38  63 S12       30.15S
PEORIA         SUNNY     45  36  70 S8        30.14S
LACON*         SUNNY     44  35  71 S7        30.14S
LINCOLN*       SUNNY     50  37  61 S12       30.14F
SPRINGFIELD    SUNNY     52  37  56 S12       30.15S
TAYLORVILLE    SUNNY     51  38  61 S10       30.14F
$$

ILZ033-039-045-046-055>057-062-063-271700-
EAST-CENTRAL ILLINOIS

CITY           SKY/WX    TMP DP  RH WIND       PRES   REMARKS
CHAMPAIGN      SUNNY     51  34  52 S13       30.16S
RANTOUL*       SUNNY     51  35  55 S12       30.16S
MATTOON        MOSUNNY   50  38  63 S12       30.15S
PARIS*         SUNNY     50  38  62 SE12      30.18S
$$

ILZ079-100>102-271700-
SOUTHWEST ILLINOIS

CITY           SKY/WX    TMP DP  RH WIND       PRES   REMARKS
ALTON          SUNNY     50  39  66 S9        30.14S
BELLEVILLE     SUNNY     53  42  67 VRB5      30.13S
CAHOKIA*       SUNNY     52  39  61 S6        30.13F
SPARTA*        SUNNY     51  41  69 S6        30.15R
$$

ILZ064>066-069>071-074>076-080>082-084>086-088>090-092>094-271700-
SOUTH-CENTRAL ILLINOIS

CITY           SKY/WX    TMP DP  RH WIND       PRES   REMARKS
CARBONDALE     SUNNY     53  45  74 S8        30.15S
CAIRO*         CLOUDY    52  46  79 S7        30.16R
EFFINGHAM*     MOSUNNY   51  41  69 E12       30.18S
MARION         MOSUNNY   57  46  67 SE7       30.16S
MT. VERNON     SUNNY     52  42  69 S8        30.16S
CENTRALIA*     SUNNY     54  42  65 S8        30.14S
SALEM*         SUNNY     53  40  62 SE8       30.15S
METROPOLIS*    CLOUDY    53  46  76 CALM      30.17S
$$

ILZ067-068-072-073-078-083-087-091-271700-
SOUTHEAST ILLINOIS

CITY           SKY/WX    TMP DP  RH WIND       PRES   REMARKS
LAWRENCEVILLE  PTSUNNY   48  42  80 SE10      30.20S
FLORA*         PTSUNNY   51  42  71 SE9       30.17S
FAIRFIELD*     CLOUDY    50  43  77 SE7       30.17S
HARRISBURG*    CLOUDY    49  44  85 E7        30.18S
ROBINSON*      MOSUNNY   48  39  71 S10       30.19F
CARMI*         CLOUDY    47  43  87 SE9       30.18S
$$

ABBREVIATIONS USED IN REMARKS
   TC - TEMPERATURE IN CELSIUS
  WCI - WIND CHILL INDEX
   HX - HEAT INDEX
  VSB - VISIBILITY
$$





USA.gov is the U.S. government's official web portal to all federal, state and local government web resources and services.